Flag for Russia

Past Weather in Kazan, Russia — Yesterday and Last 2 Weeks

Now
41 °F

Passing clouds.


Feels Like: 37 °F
Forecast: 45 / 37 °F
Wind: 6 mph from West

Location: Kazan'
Current Time: Oct 25, 2020 at 12:30:48 am
Latest Report: Oct 25, 2020 at 12:00 am
Visibility: N/A
Pressure29.74 "Hg
Humidity: 87%
Dew Point: 37 °F
Location of KazanLocation

Past Weather in Kazan — Graph

°F

Kazan Temperature Yesterday

Maximum temperature yesterday: 52 °F (at 12:00 pm)
Minimum temperature yesterday: 43 °F (at 12:00 am)
Average temperature yesterday: 49 °F

High & Low Weather Summary for the Past Weeks

 TemperatureHumidityPressure
High66 °F (Oct 15, 3:00 pm)100% (Oct 23, 7:00 pm)30.45 "Hg (Oct 23, 7:00 pm)
Low27 °F (Oct 23, 2:00 am)24% (Oct 15, 3:00 pm)29.50 "Hg (Oct 24, 5:00 am)
Average44 °F67%30.03 "Hg
* Reported Oct 9 11:00 pm — Oct 24 11:30 pm, Kazan. Weather by CustomWeather, © 2020

Note: Actual official high and low records may vary slightly from our data, if they occured in-between our weather recording intervals... More about our weather records

Kazan Weather History for the Previous 24 Hours

Scroll right to see more
 ConditionsComfort  
Time TempWeatherWind HumidityBarometerVisibility
11:30 pm
Sat, Oct 24
43 °FPassing clouds.8 mph87%29.74 "HgN/A
11:00 pm43 °FClear.8 mph87%29.74 "Hg10 mi
10:30 pm43 °FClear.10 mph87%29.74 "Hg10 mi
10:00 pm45 °FClear.8 mph81%29.74 "Hg10 mi
9:30 pm46 °FPassing clouds.10 mph82%29.74 "HgN/A
9:00 pm46 °FClear.13 mph82%29.74 "Hg10 mi
8:30 pm46 °FClear.10 mph82%29.71 "Hg10 mi
8:00 pm48 °FPassing clouds.13 mph82%29.71 "HgN/A
7:30 pm48 °FClear.13 mph82%29.71 "Hg10 mi
7:00 pm50 °FPassing clouds.10 mph76%29.71 "HgN/A
6:30 pm50 °FPassing clouds.8 mph76%29.71 "HgN/A
6:00 pm50 °FClear.8 mph76%29.71 "Hg10 mi
5:30 pm50 °FPassing clouds.10 mph82%29.68 "HgN/A
5:00 pm50 °FClear.10 mph82%29.68 "Hg10 mi
4:30 pm50 °FClear.13 mph76%29.65 "Hg10 mi
4:00 pm52 °FPartly sunny.15 mph72%29.65 "HgN/A
3:30 pm52 °FSunny.17 mph72%29.65 "Hg10 mi
3:00 pm52 °FPartly sunny.17 mph77%29.62 "HgN/A
2:30 pm52 °FPartly sunny.20 mph77%29.62 "HgN/A
2:00 pm52 °FPartly sunny.20 mph77%29.62 "HgN/A
1:30 pm52 °FPartly sunny.20 mph77%29.59 "HgN/A
1:00 pm52 °FPartly sunny.17 mph77%29.59 "HgN/A
12:30 pm52 °FPartly sunny.17 mph77%29.56 "HgN/A
12:00 pm52 °FPartly sunny.17 mph82%29.56 "HgN/A
11:30 am50 °FPartly sunny.13 mph88%29.56 "HgN/A
11:00 am50 °FLight rain. Partly sunny.15 mph88%29.56 "Hg6 mi
10:30 am50 °FPartly sunny.15 mph88%29.56 "HgN/A
10:00 am50 °FPartly sunny.15 mph88%29.53 "HgN/A
9:30 am50 °FPartly sunny.17 mph88%29.53 "HgN/A
9:00 am50 °FPartly sunny.15 mph88%29.53 "HgN/A
8:30 am50 °FPartly sunny.15 mph88%29.53 "HgN/A
8:00 am50 °FPartly sunny.15 mph88%29.53 "HgN/A
7:30 am50 °FOvercast.13 mph88%29.53 "HgN/A
7:00 am50 °FOvercast.13 mph88%29.50 "HgN/A
6:30 am50 °FOvercast.15 mph88%29.50 "HgN/A
6:00 am50 °FLow clouds.10 mph88%29.50 "HgN/A
5:30 am48 °FLight rain. Low clouds.10 mph94%29.50 "Hg5 mi
5:00 am48 °FLow clouds.10 mph94%29.50 "HgN/A
4:30 am48 °FLight rain. Low clouds.10 mph94%29.53 "Hg5 mi
4:00 am46 °FLight rain. Overcast.8 mph100%29.53 "Hg4 mi
3:30 am46 °FLight rain. Overcast.10 mph100%29.53 "Hg4 mi
3:00 am48 °FOvercast.10 mph94%29.56 "Hg6 mi
2:30 am46 °FOvercast.8 mph93%29.59 "Hg4 mi
2:00 am45 °FFog.6 mph100%29.59 "Hg3 mi
1:30 am45 °FFog.6 mph100%29.59 "Hg3 mi
12:30 am43 °FFog.6 mph93%29.62 "Hg0 mi
12:00 am43 °FQuite cool.6 mph93%29.62 "Hg0 mi
Weather by CustomWeather, © 2020

See weather overview